STARLINK-36570, 67640

Orbit data source: Space-Track

STARLINK-36570, 67640 is a payload satellite owned by SpaceX/Seattle (US) in LEO that was launched on Fri, 30 Jan 2026 UTC via an FALCON 9 launch vehicle from the Air Force Eastern Test Range (AFETR). Payload-class satellites include a variety of spacecraft equipped with specific instruments for various scientific and technological missions. These include communications satellites like Starlink; space stations such as the ISS; scientific satellites like the Hubble; Earth observation satellites from companies like Planet Labs, Umbra, and HawkEye 360; GPS; miniature CubeSats for education and research; and military/defense satellites.

Loading next visibility...
Identifier
67640, 2026-020Z
Orbit
LEO
Country
Flag of USUS
Related business
Manufacturer
SpaceX/Seattle
Mission
Operational Commercial Communications
Bus & Motor
STARLINK V2MO, Unknown motor
Mass
575 kg wet, ~530 kg dry
Launch date (UTC)
2026-01-30 (5 months ago)
Launch vehicle
FALCON 9
Launch site
Air Force Eastern Test Range (AFETR)
Object type
Payload
Rocket body
Debris
Shape & HBR
Box + 2 Pan, 17.7 m
Radar Cross Section
36.964 m², Large (>1 m²)

Expand to show TLE details & history
Last TLE update: 12 hours ago

TLE from 12 hours ago
0 STARLINK-36570
1 67640U 26020Z   26171.33088881  .00009144  00000-0  34130-3 0  9991
2 67640  42.9966 279.9025 0001132 275.7581  84.3141 15.27588141 21812
Epoch: 2026-06-20T07:56Z
TLE epoch observation values (Epoch: 2026-06-20T07:56:28.793Z)
Latitude
-0.00004°
Longitude
-107.76457°
Altitude
482.723 km
Speed
7.626 km/s
True Right ascension
18h 39m 36s
True Declination
0° 00' 00"
Sunlit
Object was in full shadow at epoch
Visualization orbit readout
Latitude
Unknown
Longitude
Unknown
Altitude
Unknown
Speed
Unknown
Apparent Right ascension
Unknown
Apparent Declination
Unknown
Sunlit
N/A
Visualization observer readout
Local Sidereal Time
07:18:38
Azimuth
Unknown
Elevation
Unknown
Doppler factor
Unknown
Orbital elements
Apogee altitude
485.747 km
Perigee altitude
484.194 km
Semi-major axis
6,863.107 km
Eccentricity
0.00011
Inclination
42.9966°
RAAN
279.9025°
Arg. of periapsis
275.7581°
True anomaly
84.32701°
Mean anomaly
84.3141°
Eccentric anomaly
84.32055°
Mean motion
3.81735 °/min
Orbital period
94.31 mins
BSTAR
0.0003413
Loading maneuver chart data...
Computing Atmospheric mass density...
Loading historical data...
Loading historical data...
Loading historical data...
Loading historical data...
Loading historical data...
Loading historical data...
Loading historical data...

Documentation

Showing up to 5 results
|